Weather History for LICT - November, 2012

Change the Weather History Date:

Tuesday, November 27, 2012

  Actual Average Record
Temperature  
Mean Temperature 66 °F -  
Max Temperature 73 °F 62 °F 75 °F (2007)
Min Temperature 59 °F 50 °F 44 °F (2013)
Cooling Degree Days 1    
Growing Degree Days 16 (Base 50)    
Moisture  
Dew Point 62 °F    
Average Humidity 87    
Maximum Humidity 94    
Minimum Humidity 71    
Precipitation  
Precipitation 0.00 in 0.09 in - ()
Sea Level Pressure  
Sea Level Pressure 29.86 in    
Wind  
Wind Speed 14 mph ()    
Max Wind Speed 26 mph    
Max Gust Speed 30 mph    
Visibility 6.7 miles    
Events      
Averages and records for this station are not official NWS values.
T = Trace of Precipitation, MM = Missing Value Source: Averaged Metar Reports

Daily Weather History Graph

Daily Weather History Graph

Search for Another Location

Airport or City:

Trip Planner

Search our weather history database for the weather conditions in past years. The results will help you decide how hot, cold, wet, or windy it might be!

Date:

Astronomy

Nov. 27, 2012 Rise Set
Actual Time 7:03 AM CET 4:51 PM CET
Civil Twilight 6:34 AM CET 5:20 PM CET
Nautical Twilight 6:02 AM CET 5:53 PM CET
Astronomical Twilight 5:30 AM CET 6:24 PM CET
Moon 4:11 PM CET (11/27) 5:53 AM CET (11/27)
Length of Visible Light 10h 46m
Length of Day
9h 48m
Waxing Gibbous, 99% of the Moon is Illuminated
Nov 27
Waxing Gibbous
Nov 28
Full
Dec 6
Last Quarter
Dec 13
New
Dec 20
First Quarter

Hourly Weather History & Observations

Time (CET) Temp. Dew Point Humidity Pressure Visibility Wind Dir Wind Speed Gust Speed Precip Events Conditions
12:55 AM 59.0 °F 55.4 °F 88% 30.01 in 6.2 mi SE 12.7 mph - N/A   Scattered Clouds
1:00 AM 59 °F 56 °F 85% 30.01 in 7 mi SE 12.7 mph - -   Partly Cloudy
1:55 AM 59.0 °F 55.4 °F 88% 30.01 in 6.2 mi SE 11.5 mph - N/A   Partly Cloudy
2:55 AM 60.8 °F 57.2 °F 88% 29.98 in 6.2 mi SE 12.7 mph - N/A   Scattered Clouds
3:55 AM 60.8 °F 59.0 °F 94% 29.95 in 6.2 mi SE 13.8 mph - N/A   Scattered Clouds
4:55 AM 60.8 °F 57.2 °F 88% 29.95 in 6.2 mi SE 13.8 mph - N/A   Scattered Clouds
5:55 AM 62.6 °F 59.0 °F 88% 29.92 in 6.2 mi SE 18.4 mph - N/A   Scattered Clouds
6:55 AM 62.6 °F 59.0 °F 88% 29.92 in 6.2 mi SE 18.4 mph - N/A   Scattered Clouds
7:00 AM 63 °F 59 °F 84% 29.92 in 10 mi SE 18.4 mph - -   Partly Cloudy
7:55 AM 62.6 °F 59.0 °F 88% 29.92 in 6.2 mi SE 16.1 mph - N/A   Scattered Clouds
8:55 AM 64.4 °F 62.6 °F 94% 29.92 in 6.2 mi SE 16.1 mph - N/A   Scattered Clouds
9:55 AM 66.2 °F 62.6 °F 88% 29.92 in 6.2 mi SSE 17.3 mph - N/A   Scattered Clouds
10:55 AM 71.6 °F 66.2 °F 83% 29.89 in 6.2 mi SSE 17.3 mph 29.9 mph N/A   Scattered Clouds
11:55 AM 71.6 °F 66.2 °F 83% 29.89 in 6.2 mi South 19.6 mph - N/A   Scattered Clouds
12:55 PM 73.4 °F 66.2 °F 78% 29.86 in 6.2 mi South 19.6 mph - N/A   Scattered Clouds
1:00 PM 73 °F 65 °F 71% 29.87 in 11 mi South 19.6 mph - -   Partly Cloudy
1:55 PM 69.8 °F 66.2 °F 88% 29.83 in 6.2 mi SSE 19.6 mph - N/A   Scattered Clouds
2:55 PM 69.8 °F 64.4 °F 83% 29.80 in 6.2 mi SSE 17.3 mph - N/A   Scattered Clouds
3:55 PM 69.8 °F 64.4 °F 83% 29.80 in 6.2 mi SSE 13.8 mph - N/A   Scattered Clouds
4:55 PM 68.0 °F 66.2 °F 94% 29.80 in 6.2 mi SSE 13.8 mph - N/A   Scattered Clouds
5:55 PM 68.0 °F 64.4 °F 88% 29.77 in 6.2 mi SE 16.1 mph - N/A   Partly Cloudy
6:55 PM 66.2 °F 64.4 °F 94% 29.77 in 6.2 mi SE 16.1 mph - N/A   Partly Cloudy
7:00 PM 67 °F 64 °F 88% 29.78 in 10 mi SE 16.1 mph - -   Scattered Clouds
7:55 PM 66.2 °F 62.6 °F 88% 29.74 in - SE 13.8 mph - N/A   Clear
8:55 PM 66.2 °F 62.6 °F 88% 29.71 in - SE 18.4 mph - N/A   Clear
9:55 PM 66.2 °F 62.6 °F 88% 29.71 in - SE 21.9 mph - N/A   Clear
10:55 PM 66.2 °F 64.4 °F 94% 29.71 in - SE 26.5 mph - N/A   Clear
11:55 PM 68.0 °F 62.6 °F 83% 29.65 in 6.2 mi SE 23.0 mph - N/A   Partly Cloudy